weather.gov     
National Weather Service

Hourly Weather Roundup
NWS Homepage
This page is being discontinued on March 12, 2014.
The same data is available at this site. Please update your bookmarks.
Thank you, and we apologize for the inconvenience.
Please send an email to SR-SRH.Webmaster@noaa.gov with any concerns.


Current Version
Previous Version:    01  02  03  04  05  06  07  08  09  10  11  12  13  14  15  16  17  18  19  20  21  22  23  24  25  26  27  28  29  30  
   31  32  33  34  35  36  37  38  39  40  41  42  43  44  45  46  47  48  49  50  51  52  53  54  55  56  57  58  59  60  
[Printable]
937
NZUS43 KILX 191110
HWRILX

AREA WEATHER ROUNDUP
NATIONAL WEATHER SERVICE, LINCOLN IL
600 AM CDT SAT APR 19 2014


CITY           SKY/WX    TMP DP  RH WIND       PRES   REMARKS
BLOOMINGTON    CLEAR     31  25  78 E9        30.32R WCI  23
CHAMPAIGN      CLEAR     37  28  70 E12       30.31R WCI  29
DANVILLE       CLEAR     34  27  75 NE5       30.30R WCI  29
DECATUR        CLEAR     36  30  79 E6        30.31R WCI  31
FLORA          NOT AVBL
GALESBURG      PTCLDY    36  29  75 E8        30.28F WCI  30
JACKSONVILLE   CLEAR     36  32  85 E8        30.29S WCI  30
LACON          CLEAR     32  27  81 CALM      30.32S
LAWRENCEVILLE  CLEAR     48  39  71 NE9       30.28R
LITCHFIELD     PTCLDY    44  33  64 CALM      30.27R
$$


CITY           SKY/WX    TMP DP  RH WIND       PRES   REMARKS
LINCOLN        CLEAR     36  28  72 NE6       30.31S WCI  31
MACOMB         CLEAR     36  31  81 E6        30.31R WCI  31
MATTOON          N/A     38  32  79 E6        30.29R WCI  33
MT CARMEL AP   CLEAR     50  39  66 NE6       30.27R
OLNEY-NOBLE AP PTCLDY    45  37  76 NE6       30.28R
PARIS          CLEAR     40  31  70 NE6       30.32R
PEORIA         CLEAR     39  24  55 E8        30.32R WCI  33
PONTIAC        CLEAR     37  30  75 E10       30.33R WCI  30
RANTOUL        CLEAR     37  28  69 NE7       30.33R WCI  32
ROBINSON       CLEAR     44  40  84 N7        30.30R
SPRINGFIELD    CLEAR     39  31  72 E6        30.30R WCI  35
TAYLORVILLE    CLEAR     41  32  70 E9        30.29R
$$

...REGIONAL REPORTS...


CITY           SKY/WX    TMP DP  RH WIND       PRES   REMARKS
CHICAGO O`HARE PTCLDY    37  28  70 NE8       30.37R WCI  31
KANKAKEE       CLEAR     33  30  88 NE6       30.34S WCI  28
MOLINE         PTCLDY    34  29  82 E5        30.30S WCI  30
MOUNT VERNON   MOCLDY    48  34  57 NE7       30.27R
PITTSFIELD     CLEAR     43  35  72 E5        30.28S
QUINCY         CLEAR     44  35  70 E13       30.25S
ROCKFORD       PTCLDY    35  26  69 E7        30.36F WCI  29
$$


CITY           SKY/WX    TMP DP  RH WIND       PRES   REMARKS
BURLINGTON     PTCLDY    40  33  76 SE9       30.27S WCI  34
CEDAR RAPIDS   MOCLDY    37  31  78 SE12      30.25S WCI  29
DES MOINES     PTCLDY    51  33  50 SE9       30.16S
KIRKSVILLE     CLEAR     45  35  68 E7        30.21R
OTTUMWA        MOCLDY    42  35  76 SE13      30.21R
ST LOUIS       PTCLDY    50  38  63 E7        30.26R
$$


CITY           SKY/WX    TMP DP  RH WIND       PRES   REMARKS
TERRE HAUTE    CLEAR     41  34  76 N5        30.30R
EVANSVILLE     CLEAR     52  41  66 N7        30.26R
INDIANAPOLIS   PTCLDY    41  34  76 NE9       30.30R
LAFAYETTE      CLEAR     36  26  67 NE3       30.32R
MADISON        PTCLDY    33  25  72 E7        30.37F WCI  27
MILWAUKEE      PTCLDY    34  28  79 NE10      30.42R WCI  26
$$






U.S. Dept. of Commerce
NOAA National Weather Service
1325 East West Highway
Silver Spring, MD 20910
E-mail: w-nws.webmaster@noaa.gov
Page last modified: May 16, 2007
NATIONAL WEATHER SERVICE: for Safety, for Work, for Fun - FOR LIFE